Monroe, WI

2:47 AM CDT on August 21, 2017 (GMT -0500)
Monroe Municipal

Weather History for KEFT - December, 2012

Change the Weather History Date:

Wednesday, December 12, 2012

  Actual Average Record
Temperature  
Mean Temperature 34 °F -  
Max Temperature 42 °F 0 °F 46 °F (2001)
Min Temperature 26 °F - -5 °F (2000)
Degree Days  
Heating Degree Days 31    
Moisture  
Dew Point 25 °F    
Average Humidity 71    
Maximum Humidity 93    
Minimum Humidity 53    
Precipitation  
Precipitation 0.00 in - - ()
Sea Level Pressure  
Sea Level Pressure 30.13 in    
Wind  
Wind Speed 13 mph (SSW)    
Max Wind Speed 23 mph    
Max Gust Speed 30 mph    
Visibility 10 miles    
Events      
Averages and records for this station are not official NWS values.
T = Trace of Precipitation, MM = Missing Value Source: NWS Daily Summary

Daily Weather History Graph

Daily Weather History Graph

Search for Another Location

Airport or City:

Trip Planner

Search our weather history database for the weather conditions in past years. The results will help you decide how hot, cold, wet, or windy it might be!

Date:

Astronomy

Dec. 12, 2012 Rise Set
Actual Time 7:19 AM CST 4:25 PM CST
Civil Twilight 6:47 AM CST 4:57 PM CST
Nautical Twilight 6:11 AM CST 5:32 PM CST
Astronomical Twilight 5:37 AM CST 6:07 PM CST
Moon 6:23 AM CST (12/12) 4:02 PM CST (12/12)
Length of Visible Light 10h 09m
Length of Day
9h 05m
Waning Crescent, 1% of the Moon is Illuminated
Dec 12
Waning Crescent
Dec 13
New
Dec 19
First Quarter
Dec 28
Full
Jan 4
Last Quarter

Hourly Weather History & Observations

Time (CST) Temp. Windchill Dew Point Humidity Pressure Visibility Wind Dir Wind Speed Gust Speed Precip Events Conditions
12:15 AM 32.0 °F 24.2 °F 24.8 °F 75% 30.07 in 10.0 mi SW 9.2 mph - N/A   Overcast
12:35 AM 32.0 °F 23.6 °F 24.8 °F 75% 30.07 in 10.0 mi SW 10.4 mph - N/A   Overcast
12:55 AM 32.0 °F 24.8 °F 24.8 °F 75% 30.07 in 10.0 mi SSW 8.1 mph - N/A   Overcast
1:15 AM 32.0 °F 25.6 °F 24.8 °F 75% 30.08 in 10.0 mi SW 6.9 mph - N/A   Overcast
1:35 AM 32.0 °F 25.6 °F 24.8 °F 75% 30.09 in 10.0 mi SSW 6.9 mph - N/A   Overcast
1:55 AM 32.0 °F 24.8 °F 24.8 °F 75% 30.09 in 10.0 mi SSW 8.1 mph - N/A   Overcast
2:15 AM 32.0 °F 23.6 °F 24.8 °F 75% 30.09 in 10.0 mi SSW 10.4 mph - N/A   Overcast
2:55 AM 32.0 °F 23.6 °F 23.0 °F 69% 30.10 in 10.0 mi SSW 10.4 mph - N/A   Overcast
3:15 AM 30.2 °F 21.3 °F 23.0 °F 75% 30.09 in 10.0 mi SSW 10.4 mph - N/A   Scattered Clouds
3:35 AM 28.4 °F 19.7 °F 23.0 °F 80% 30.09 in 10.0 mi SSW 9.2 mph - N/A   Clear
3:55 AM 28.4 °F 19.7 °F 21.2 °F 74% 30.09 in 10.0 mi SSW 9.2 mph - N/A   Clear
4:15 AM 28.4 °F 19.7 °F 21.2 °F 74% 30.10 in 10.0 mi SSW 9.2 mph - N/A   Clear
4:35 AM 26.6 °F 16.8 °F 24.8 °F 93% 30.10 in 10.0 mi SSW 10.4 mph - N/A   Clear
4:55 AM 26.6 °F 16.8 °F 24.8 °F 93% 30.10 in 10.0 mi SSW 10.4 mph - N/A   Clear
5:15 AM 26.6 °F 16.8 °F 23.0 °F 86% 30.11 in 10.0 mi SSW 10.4 mph - N/A   Clear
5:35 AM 26.6 °F 16.8 °F 23.0 °F 86% 30.11 in 10.0 mi SSW 10.4 mph - N/A   Clear
5:55 AM 26.6 °F 16.8 °F 23.0 °F 86% 30.12 in 10.0 mi SSW 10.4 mph - N/A   Clear
6:15 AM 26.6 °F 16.2 °F 23.0 °F 86% 30.12 in 10.0 mi SSW 11.5 mph - N/A   Clear
6:35 AM 26.6 °F 16.8 °F 23.0 °F 86% 30.13 in 10.0 mi SSW 10.4 mph - N/A   Clear
6:55 AM 26.6 °F 16.8 °F 23.0 °F 86% 30.13 in 10.0 mi SSW 10.4 mph - N/A   Clear
7:15 AM 26.6 °F 16.8 °F 23.0 °F 86% 30.14 in 10.0 mi SSW 10.4 mph - N/A   Clear
7:35 AM 26.6 °F 16.2 °F 23.0 °F 86% 30.14 in 10.0 mi SSW 11.5 mph - N/A   Clear
7:55 AM 26.6 °F 15.7 °F 23.0 °F 86% 30.14 in 10.0 mi South 12.7 mph - N/A   Clear
8:15 AM 26.6 °F 16.2 °F 21.2 °F 80% 30.15 in 10.0 mi South 11.5 mph - N/A   Clear
8:35 AM 28.4 °F 18.0 °F 21.2 °F 74% 30.15 in 10.0 mi South 12.7 mph - N/A   Clear
8:55 AM 28.4 °F 17.5 °F 21.2 °F 74% 30.16 in 10.0 mi South 13.8 mph - N/A   Clear
9:15 AM 30.2 °F 19.8 °F 23.0 °F 75% 30.17 in 10.0 mi SSW 13.8 mph - N/A   Clear
9:35 AM 32.0 °F 22.5 °F 23.0 °F 69% 30.18 in 10.0 mi SSW 12.7 mph - N/A   Clear
9:55 AM 32.0 °F 21.6 °F 23.0 °F 69% 30.18 in 10.0 mi SSW 15.0 mph - N/A   Clear
10:15 AM 33.8 °F 24.3 °F 24.8 °F 70% 30.18 in 10.0 mi SSW 13.8 mph - N/A   Clear
10:55 AM 37.4 °F 27.8 °F 23.0 °F 56% 30.18 in 10.0 mi SSW 17.3 mph 20.7 mph N/A   Clear
11:15 AM 37.4 °F 28.5 °F 24.8 °F 60% 30.17 in 10.0 mi South 15.0 mph - N/A   Clear
11:35 AM 37.4 °F 28.9 °F 24.8 °F 60% 30.17 in 10.0 mi South 13.8 mph 20.7 mph N/A   Clear
11:55 AM 39.2 °F 31.2 °F 26.6 °F 61% 30.17 in 10.0 mi South 13.8 mph - N/A   Clear
12:15 PM 39.2 °F 30.5 °F 26.6 °F 61% 30.17 in 10.0 mi South 16.1 mph - N/A   Clear
12:35 PM 41.0 °F 32.8 °F 26.6 °F 57% 30.16 in 10.0 mi South 16.1 mph 23.0 mph N/A   Clear
12:55 PM 41.0 °F 31.6 °F 26.6 °F 57% 30.15 in 10.0 mi South 20.7 mph 27.6 mph N/A   Clear
1:15 PM 41.0 °F 31.1 °F 26.6 °F 57% 30.14 in 10.0 mi South 23.0 mph 26.5 mph N/A   Clear
1:35 PM 41.0 °F 31.4 °F 26.6 °F 57% 30.13 in 10.0 mi South 21.9 mph 29.9 mph N/A   Clear
1:55 PM 41.0 °F 31.6 °F 26.6 °F 57% 30.12 in 10.0 mi South 20.7 mph 27.6 mph N/A   Clear
2:15 PM 42.8 °F 34.5 °F 26.6 °F 53% 30.13 in 10.0 mi South 18.4 mph 29.9 mph N/A   Clear
2:35 PM 42.8 °F 33.8 °F 26.6 °F 53% 30.13 in 10.0 mi South 21.9 mph 27.6 mph N/A   Clear
2:55 PM 42.8 °F 34.5 °F 26.6 °F 53% 30.13 in 10.0 mi South 18.4 mph 24.2 mph N/A   Clear
3:15 PM 41.0 °F 32.2 °F 26.6 °F 57% 30.13 in 10.0 mi South 18.4 mph 23.0 mph N/A   Clear
3:35 PM 41.0 °F 32.2 °F 26.6 °F 57% 30.13 in 10.0 mi South 18.4 mph 23.0 mph N/A   Clear
3:55 PM 41.0 °F 33.5 °F 26.6 °F 57% 30.13 in 10.0 mi South 13.8 mph 21.9 mph N/A   Clear
4:15 PM 37.4 °F 28.9 °F 26.6 °F 65% 30.13 in 10.0 mi South 13.8 mph 19.6 mph N/A   Clear
4:35 PM 37.4 °F 28.5 °F 26.6 °F 65% 30.13 in 10.0 mi South 15.0 mph - N/A   Clear
4:55 PM 37.4 °F 28.2 °F 26.6 °F 65% 30.13 in 10.0 mi South 16.1 mph - N/A   Clear
5:15 PM 37.4 °F 28.2 °F 26.6 °F 65% 30.13 in 10.0 mi South 16.1 mph - N/A   Clear
5:55 PM 35.6 °F 25.5 °F 26.6 °F 70% 30.13 in 10.0 mi South 17.3 mph - N/A   Clear
6:15 PM 35.6 °F 26.2 °F 26.6 °F 70% 30.13 in 10.0 mi South 15.0 mph - N/A   Clear
6:35 PM 35.6 °F 25.5 °F 26.6 °F 70% 30.13 in 10.0 mi South 17.3 mph - N/A   Clear
6:55 PM 35.6 °F 24.8 °F 26.6 °F 70% 30.13 in 10.0 mi South 19.6 mph 26.5 mph N/A   Clear
7:15 PM 35.6 °F 24.8 °F 26.6 °F 70% 30.13 in 10.0 mi South 19.6 mph - N/A   Clear
7:35 PM 35.6 °F 24.8 °F 26.6 °F 70% 30.13 in 10.0 mi South 19.6 mph - N/A   Clear
7:55 PM 35.6 °F 24.2 °F 26.6 °F 70% 30.13 in 10.0 mi South 21.9 mph 26.5 mph N/A   Clear
8:15 PM 35.6 °F 24.2 °F 26.6 °F 70% 30.14 in 10.0 mi South 21.9 mph 29.9 mph N/A   Clear
8:35 PM 35.6 °F 24.0 °F 26.6 °F 70% 30.14 in 10.0 mi South 23.0 mph - N/A   Clear
8:55 PM 35.6 °F 24.2 °F 26.6 °F 70% 30.14 in 10.0 mi South 21.9 mph - N/A   Clear
9:15 PM 35.6 °F 24.8 °F 26.6 °F 70% 30.15 in 10.0 mi South 19.6 mph - N/A   Clear
9:35 PM 35.6 °F 24.5 °F 26.6 °F 70% 30.15 in 10.0 mi South 20.7 mph - N/A   Clear
9:55 PM 35.6 °F 24.8 °F 26.6 °F 70% 30.15 in 10.0 mi South 19.6 mph 25.3 mph N/A   Clear
10:15 PM 35.6 °F 24.5 °F 26.6 °F 70% 30.15 in 10.0 mi South 20.7 mph 26.5 mph N/A   Clear
10:35 PM 35.6 °F 24.5 °F 26.6 °F 70% 30.15 in 10.0 mi South 20.7 mph 28.8 mph N/A   Clear
10:55 PM 33.8 °F 21.6 °F 26.6 °F 75% 30.15 in 10.0 mi South 23.0 mph 27.6 mph N/A   Clear
11:15 PM 33.8 °F 22.5 °F 26.6 °F 75% 30.15 in 10.0 mi South 19.6 mph 27.6 mph N/A   Clear
11:35 PM 33.8 °F 21.9 °F 26.6 °F 75% 30.15 in 10.0 mi South 21.9 mph - N/A   Clear
11:55 PM 33.8 °F 22.2 °F 26.6 °F 75% 30.15 in 10.0 mi South 20.7 mph 26.5 mph N/A   Clear